{"data":{"norad_id":65458,"intl_designator":"2025-195A","name":"STARLINK-34784","alt_names":[],"object_type":"PAYLOAD","status":"ACTIVE","operator":null,"country":"US","launch_date":"2025-09-03","launch_site_code":"AFETR","launch_vehicle":null,"mission":null,"orbit_class":"UNKNOWN","rcs_meters":null,"size_class":null,"mass_kg":null,"dimensions":null,"purposes":["comms"],"wikipedia_slug":null,"has_3d_model":false,"image_url":null,"decayed_at":null,"tle_current":{"epoch":"2026-09-19T23:23:59.957664Z","epoch_age_seconds":160218,"freshness":"FRESH","line1":"1 65458U 25195A   26262.97499951  .00012833  00000+0  42437-3 0  9990","line2":"2 65458  53.1580  74.0475 0001672  72.1350 287.9834 15.31716556 59761","mean_motion":15.31716556,"eccentricity":0.0001672,"inclination_deg":53.158,"raan_deg":74.0475,"arg_perigee_deg":72.135,"mean_anomaly_deg":287.9834,"bstar":0.00042437,"rev_number":5976,"period_min":94.012171792442,"perigee_km":469.54551911376,"apogee_km":471.83576707761,"semimajor_km":6848.8276430957,"source":"CELESTRAK","updated_at":"2026-09-21T09:00:35.613574Z"}}}